User: anonymous   Login
Location: Red Shale Campground
(45.5700°N, 106.1600°W)
Time: 17:52:08
(UTC-07:00)
Language:

FENGYUN 3A - Orbit

View from above orbital plane
View from above orbital plane
View from above satellite
View from above satellite

Ground track
Ground track

The orbit data is extracted from the following two-line orbital elements,

1 32958U 08026A   18053.34271753  .00000013  00000-0  25595-4 0  9996
2 32958  98.3886  74.2385 0008353 276.2141  83.8081 14.19693566504829
Epoch (UTC): 22 February 2018 08:13:30
Eccentricity: 0.0008353
inclination: 98.3886°
perigee height: 820 km
apogee height: 832 km
right ascension of ascending node: 74.2385°
argument of perigee: 276.2141°
revolutions per day: 14.19693566
mean anomaly at epoch: 83.8081°
orbit number at epoch: 50482

The dashed part of the orbit path shows where the satellite is in the earth's shadow,  

DLR